• în România
  • Lista ţărilor
  • Pe 7 zile
  • Temperatura apei
  • Hartă satelitară
  • Meteo pe hartă
  • Widget-uri
  • user-avatar
    Intrare

    Meteo pe oră la Ondjiwa

    Astăzi, 23 Ianuarie, Marţi

    Timp Temperatura Precipitaţii Vânt Presiune Umiditate
    00:00 +25°C° 0,1 mm 2 m/s 666 mmHg 55%
    01:00 +26°C° 0 mm 3 m/s 666 mmHg 55%
    02:00 +25°C° 0,1 mm 3 m/s 666 mmHg 56%
    03:00 +24°C° 0,1 mm 2 m/s 665 mmHg 58%
    04:00 +23°C° 0,1 mm 2 m/s 665 mmHg 59%
    05:00 +23°C° 0 mm 2 m/s 665 mmHg 56%
    06:00 +24°C° 0 mm 2 m/s 666 mmHg 52%
    07:00 +24°C° 0 mm 2 m/s 666 mmHg 48%
    08:00 +26°C° 0 mm 2 m/s 666 mmHg 41%
    09:00 +28°C° 0 mm 2 m/s 667 mmHg 35%
    10:00 +30°C° 0 mm 2 m/s 667 mmHg 28%
    11:00 +32°C° 0 mm 2 m/s 667 mmHg 27%
    12:00 +34°C° 0 mm 1 m/s 666 mmHg 25%
    13:00 +36°C° 0 mm 1 m/s 666 mmHg 23%
    14:00 +36°C° 0 mm 1 m/s 666 mmHg 24%
    15:00 +35°C° 0 mm 1 m/s 665 mmHg 24%
    16:00 +35°C° 0 mm 1 m/s 664 mmHg 24%
    17:00 +34°C° 0 mm 1 m/s 664 mmHg 26%
    18:00 +33°C° 0 mm 1 m/s 664 mmHg 28%
    19:00 +32°C° 0 mm 1 m/s 664 mmHg 30%
    20:00 +31°C° 0 mm 1 m/s 664 mmHg 32%
    21:00 +30°C° 0 mm 2 m/s 665 mmHg 34%
    22:00 +30°C° 0 mm 2 m/s 666 mmHg 36%
    23:00 +29°C° 0,1 mm 2 m/s 665 mmHg 42%

    Mâine, 24 Ianuarie, Miercuri

    Timp Temperatura Precipitaţii Vânt Presiune Umiditate
    00:00 +28°C° 0,1 mm 3 m/s 665 mmHg 48%
    01:00 +27°C° 0,1 mm 4 m/s 665 mmHg 53%
    02:00 +26°C° 0 mm 3 m/s 665 mmHg 52%
    03:00 +26°C° 0 mm 3 m/s 665 mmHg 51%
    04:00 +25°C° 0 mm 3 m/s 665 mmHg 50%
    05:00 +25°C° 0 mm 3 m/s 665 mmHg 51%
    06:00 +25°C° 0 mm 3 m/s 666 mmHg 51%
    07:00 +25°C° 0 mm 4 m/s 666 mmHg 52%
    08:00 +27°C° 0 mm 3 m/s 666 mmHg 44%
    09:00 +29°C° 0 mm 3 m/s 667 mmHg 37%
    10:00 +31°C° 0 mm 3 m/s 667 mmHg 29%
    11:00 +33°C° 0 mm 3 m/s 667 mmHg 27%
    12:00 +35°C° 0 mm 3 m/s 666 mmHg 25%
    13:00 +36°C° 0 mm 3 m/s 666 mmHg 22%
    14:00 +36°C° 0 mm 3 m/s 666 mmHg 23%
    15:00 +36°C° 0 mm 3 m/s 665 mmHg 23%
    16:00 +36°C° 0 mm 3 m/s 664 mmHg 24%
    17:00 +34°C° 0,1 mm 3 m/s 664 mmHg 29%
    18:00 +31°C° 0,1 mm 3 m/s 664 mmHg 34%
    19:00 +29°C° 0,1 mm 4 m/s 664 mmHg 40%
    20:00 +29°C° 0 mm 4 m/s 665 mmHg 43%
    21:00 +28°C° 0 mm 4 m/s 665 mmHg 46%
    22:00 +28°C° 0 mm 4 m/s 666 mmHg 49%
    23:00 +27°C° 0,1 mm 3 m/s 666 mmHg 52%

    Poimâine, 25 Ianuarie, Joi

    Timp Temperatura Precipitaţii Vânt Presiune Umiditate
    00:00 +26°C° 0,1 mm 3 m/s 666 mmHg 56%
    01:00 +25°C° 0,1 mm 3 m/s 666 mmHg 59%
    02:00 +25°C° 0 mm 3 m/s 665 mmHg 58%
    03:00 +24°C° 0 mm 3 m/s 665 mmHg 58%
    04:00 +24°C° 0 mm 3 m/s 665 mmHg 58%
    05:00 +24°C° 0 mm 3 m/s 665 mmHg 56%
    06:00 +24°C° 0 mm 3 m/s 666 mmHg 54%
    07:00 +25°C° 0 mm 3 m/s 666 mmHg 52%
    08:00 +26°C° 0 mm 2 m/s 667 mmHg 48%
    09:00 +27°C° 0 mm 2 m/s 667 mmHg 44%
    10:00 +28°C° 0 mm 2 m/s 667 mmHg 40%
    11:00 +29°C° 0 mm 2 m/s 667 mmHg 40%
    12:00 +29°C° 0 mm 2 m/s 667 mmHg 39%
    13:00 +30°C° 0 mm 2 m/s 666 mmHg 38%
    14:00 +30°C° 0 mm 2 m/s 666 mmHg 37%
    15:00 +30°C° 0 mm 2 m/s 665 mmHg 37%
    16:00 +30°C° 0 mm 2 m/s 665 mmHg 36%
    17:00 +29°C° 0 mm 2 m/s 664 mmHg 38%
    18:00 +28°C° 0 mm 2 m/s 664 mmHg 40%
    19:00 +27°C° 0 mm 1 m/s 664 mmHg 43%
    20:00 +27°C° 0 mm 1 m/s 665 mmHg 44%
    21:00 +26°C° 0 mm 2 m/s 665 mmHg 45%
    22:00 +26°C° 0 mm 2 m/s 666 mmHg 46%
    23:00 +25°C° 0,2 mm 2 m/s 665 mmHg 48%

    26 Ianuarie, Vineri

    Timp Temperatura Precipitaţii Vânt Presiune Umiditate
    00:00 +25°C° 0,2 mm 2 m/s 665 mmHg 50%
    01:00 +24°C° 0,2 mm 2 m/s 665 mmHg 52%
    02:00 +24°C° 0 mm 2 m/s 665 mmHg 51%
    03:00 +24°C° 0 mm 2 m/s 665 mmHg 50%
    04:00 +24°C° 0 mm 2 m/s 665 mmHg 49%
    05:00 +24°C° 0 mm 2 m/s 665 mmHg 49%
    06:00 +24°C° 0 mm 2 m/s 666 mmHg 48%
    07:00 +24°C° 0 mm 2 m/s 666 mmHg 48%
    08:00 +26°C° 0 mm 2 m/s 667 mmHg 43%
    09:00 +28°C° 0 mm 1 m/s 667 mmHg 38%
    10:00 +29°C° 0 mm 1 m/s 668 mmHg 34%
    11:00 +31°C° 0 mm 1 m/s 668 mmHg 31%
    12:00 +33°C° 0 mm 1 m/s 667 mmHg 28%
    13:00 +35°C° 0 mm 1 m/s 667 mmHg 25%
    14:00 +35°C° 0 mm 1 m/s 666 mmHg 25%
    15:00 +35°C° 0 mm 1 m/s 666 mmHg 25%
    16:00 +34°C° 0 mm 1 m/s 665 mmHg 25%
    17:00 +33°C° 0 mm 1 m/s 665 mmHg 28%
    18:00 +32°C° 0 mm 2 m/s 665 mmHg 30%
    19:00 +31°C° 0 mm 2 m/s 665 mmHg 32%
    20:00 +30°C° 0 mm 2 m/s 665 mmHg 34%
    21:00 +29°C° 0 mm 2 m/s 666 mmHg 35%
    22:00 +29°C° 0 mm 2 m/s 666 mmHg 37%
    23:00 +28°C° 0,1 mm 2 m/s 666 mmHg 39%

    27 Ianuarie, Sâmbătă

    Timp Temperatura Precipitaţii Vânt Presiune Umiditate
    00:00 +27°C° 0,1 mm 2 m/s 665 mmHg 42%
    01:00 +26°C° 0,1 mm 2 m/s 665 mmHg 45%
    02:00 +26°C° 0,3 mm 2 m/s 665 mmHg 48%
    03:00 +25°C° 0,3 mm 2 m/s 665 mmHg 51%
    04:00 +24°C° 0,3 mm 2 m/s 665 mmHg 54%
    05:00 +25°C° 0,2 mm 2 m/s 665 mmHg 54%
    06:00 +25°C° 0,2 mm 2 m/s 666 mmHg 54%
    07:00 +25°C° 0,2 mm 2 m/s 666 mmHg 54%
    08:00 +26°C° 0,4 mm 2 m/s 667 mmHg 50%
    09:00 +28°C° 0,4 mm 2 m/s 667 mmHg 46%
    10:00 +29°C° 0,4 mm 1 m/s 668 mmHg 42%
    11:00 +32°C° 0 mm 1 m/s 667 mmHg 38%
    12:00 +34°C° 0 mm 1 m/s 667 mmHg 34%
    13:00 +36°C° 0 mm 1 m/s 667 mmHg 29%
    14:00 +35°C° 0 mm 1 m/s 666 mmHg 30%
    15:00 +35°C° 0 mm 1 m/s 665 mmHg 30%
    16:00 +34°C° 0 mm 1 m/s 664 mmHg 31%
    17:00 +33°C° 0 mm 1 m/s 665 mmHg 34%
    18:00 +32°C° 0 mm 2 m/s 665 mmHg 37%
    19:00 +31°C° 0 mm 2 m/s 665 mmHg 40%
    20:00 +30°C° 0,3 mm 2 m/s 665 mmHg 44%
    21:00 +29°C° 0,3 mm 2 m/s 665 mmHg 49%
    22:00 +28°C° 0,3 mm 2 m/s 666 mmHg 53%
    23:00 +27°C° 0,3 mm 2 m/s 665 mmHg 59%

    28 Ianuarie, Duminică

    Timp Temperatura Precipitaţii Vânt Presiune Umiditate
    00:00 +26°C° 0,3 mm 3 m/s 665 mmHg 65%
    01:00 +25°C° 0,3 mm 3 m/s 665 mmHg 71%
    02:00 +24°C° 0,1 mm 2 m/s 664 mmHg 71%
    03:00 +24°C° 0,1 mm 2 m/s 664 mmHg 70%
    04:00 +24°C° 0,1 mm 1 m/s 664 mmHg 70%
    05:00 +24°C° 0,4 mm 1 m/s 665 mmHg 70%
    06:00 +24°C° 0,4 mm 1 m/s 665 mmHg 69%
    07:00 +25°C° 0,4 mm 1 m/s 666 mmHg 69%
    08:00 +26°C° 0,5 mm 1 m/s 666 mmHg 64%
    09:00 +27°C° 0,5 mm 1 m/s 666 mmHg 59%
    10:00 +29°C° 0,5 mm 1 m/s 667 mmHg 55%
    11:00 +30°C° 0 mm 1 m/s 666 mmHg 49%
    12:00 +32°C° 0 mm 1 m/s 666 mmHg 43%
    13:00 +34°C° 0 mm 1 m/s 666 mmHg 37%
    14:00 +33°C° 0 mm 1 m/s 665 mmHg 37%
    15:00 +33°C° 0 mm 1 m/s 665 mmHg 37%
    16:00 +33°C° 0 mm 1 m/s 664 mmHg 36%
    17:00 +32°C° 0,1 mm 1 m/s 664 mmHg 39%
    18:00 +31°C° 0,1 mm 2 m/s 664 mmHg 42%
    19:00 +30°C° 0,1 mm 2 m/s 664 mmHg 46%
    20:00 +29°C° 0 mm 2 m/s 664 mmHg 49%
    21:00 +28°C° 0 mm 1 m/s 665 mmHg 53%
    22:00 +27°C° 0 mm 1 m/s 665 mmHg 57%
    23:00 +26°C° 0,6 mm 1 m/s 665 mmHg 61%
    Arată mai mult